Location: Helsinki
(60.1699°N, 24.9384°E)
Time: 23:40:53
(UTC+02:00)

Transit 4A - Pass Details

Date: 31 October 2020
Orbit: 862 x 982 km, 66.8° (Epoch: 25 November)

Event Time Altitude Azimuth Distance (km) Brightness Sun altitude
Rises 23:09:53 0° 312° (NW) 3,698 11.7 -43.2°
Reaches altitude 10° 23:12:32 10° 307° (NW) 2,748 10.8 -43.3°
Enters shadow 23:13:58 17° 302° (WNW) 2,265 10.2 -43.4°
